SWR733 LSGG-EDDM

Flight info

Callsign SWR733
Flight time N/A
Altitude 30000
Route SOSAL N871 KORED DCT NUNRI T103 BETOS BETOS1B
Aircraft RJ1H/M-SDFGIRWY/LB1

Departure

Time 2026-02-17 09:07
Airport Geneva International Airport (LSGG)

Arrival

Time N/A
Airport Munich Airport (EDDM)
Time Latitude Longitude Altitude Speed Heading
2026-02-17 08:47 46.23283 6.10608 1392 ft 0 kts 181°
2026-02-17 08:59 46.23271 6.10599 1401 ft 5 kts 221°
2026-02-17 08:59 46.23307 6.10567 1392 ft 16 kts 30°
2026-02-17 08:59 46.23416 6.10701 1385 ft 25 kts 44°
2026-02-17 09:00 46.23561 6.10893 1385 ft 32 kts 41°
2026-02-17 09:00 46.23734 6.11137 1382 ft 36 kts 45°
2026-02-17 09:00 46.23901 6.11372 1379 ft 32 kts 43°
2026-02-17 09:00 46.24051 6.11587 1375 ft 29 kts 46°
2026-02-17 09:01 46.24187 6.11795 1374 ft 28 kts 47°
2026-02-17 09:01 46.24318 6.11994 1372 ft 27 kts 45°
2026-02-17 09:01 46.24449 6.12179 1371 ft 26 kts 43°
2026-02-17 09:01 46.24575 6.12358 1370 ft 25 kts 46°
2026-02-17 09:02 46.24695 6.12536 1369 ft 24 kts 46°
2026-02-17 09:02 46.24819 6.12691 1369 ft 19 kts 22°
2026-02-17 09:02 46.24861 6.12710 1369 ft 0 kts 14°
2026-02-17 09:03 46.24887 6.12729 1368 ft 8 kts 23°
2026-02-17 09:03 46.24928 6.12742 1369 ft 0 kts 351°
2026-02-17 09:04 46.24962 6.12734 1369 ft 10 kts 351°
2026-02-17 09:04 46.25006 6.12660 1371 ft 12 kts 240°
2026-02-17 09:04 46.24994 6.12639 1370 ft 0 kts 226°
2026-02-17 09:05 46.24994 6.12638 1370 ft 0 kts 226°
2026-02-17 09:06 46.24859 6.12446 1371 ft 54 kts 225°
2026-02-17 09:06 46.24487 6.11896 1373 ft 97 kts 225°
2026-02-17 09:06 46.23927 6.11087 1380 ft 128 kts 223°
2026-02-17 09:07 46.22600 6.09163 2015 ft 132 kts 227°
2026-02-17 09:07 46.21877 6.08182 2153 ft 149 kts 223°
2026-02-17 09:07 46.21152 6.07142 2609 ft 145 kts 225°
2026-02-17 09:07 46.20405 6.06167 2989 ft 148 kts 224°
2026-02-17 09:08 46.19592 6.05122 3088 ft 166 kts 225°
2026-02-17 09:08 46.18713 6.03941 3127 ft 179 kts 224°
2026-02-17 09:08 46.17777 6.02632 3142 ft 198 kts 225°
2026-02-17 09:08 46.16794 6.01107 3283 ft 214 kts 241°
2026-02-17 09:09 46.16558 5.99039 3760 ft 214 kts 284°
2026-02-17 09:09 46.17350 5.97271 4251 ft 216 kts 322°
2026-02-17 09:09 46.18794 5.96639 4699 ft 227 kts
2026-02-17 09:09 46.20274 5.97459 5178 ft 237 kts 36°
2026-02-17 09:10 46.21423 5.99200 5602 ft 242 kts 45°
2026-02-17 09:10 46.22545 6.00965 6044 ft 241 kts 39°
2026-02-17 09:10 46.23795 6.02557 6526 ft 238 kts 31°
2026-02-17 09:11 46.26573 6.05123 7308 ft 241 kts 31°
2026-02-17 09:11 46.27847 6.06726 7715 ft 244 kts 37°
2026-02-17 09:11 46.29079 6.08425 8099 ft 246 kts 38°
2026-02-17 09:11 46.30309 6.10150 8497 ft 247 kts 38°
2026-02-17 09:12 46.31545 6.11878 8884 ft 248 kts 38°
2026-02-17 09:12 46.32787 6.13612 9288 ft 249 kts 38°
2026-02-17 09:12 46.34045 6.15346 9661 ft 251 kts 37°
2026-02-17 09:12 46.35317 6.17096 9961 ft 257 kts 37°
2026-02-17 09:13 46.36661 6.18912 10002 ft 272 kts 36°
2026-02-17 09:13 46.38110 6.20807 10042 ft 289 kts 36°
2026-02-17 09:13 46.39647 6.22790 10121 ft 303 kts 36°
2026-02-17 09:13 46.41261 6.24864 10210 ft 317 kts 36°
2026-02-17 09:14 46.42913 6.27023 10504 ft 321 kts 37°
2026-02-17 09:14 46.44559 6.29229 10895 ft 323 kts 37°
2026-02-17 09:14 46.46203 6.31458 11330 ft 323 kts 37°
2026-02-17 09:15 46.49517 6.35916 12516 ft 328 kts 37°
2026-02-17 09:15 46.51193 6.38183 13064 ft 330 kts 37°
2026-02-17 09:15 46.52881 6.40465 13576 ft 333 kts 36°
2026-02-17 09:15 46.54590 6.42742 14092 ft 334 kts 36°
2026-02-17 09:16 46.56236 6.45148 14527 ft 343 kts 47°
2026-02-17 09:16 46.57190 6.48396 14930 ft 362 kts 75°
2026-02-17 09:16 46.57217 6.52114 15354 ft 372 kts 90°
2026-02-17 09:16 46.56978 6.55872 15763 ft 375 kts 90°
2026-02-17 09:17 46.56745 6.59661 16175 ft 378 kts 90°
2026-02-17 09:17 46.56527 6.63483 16578 ft 380 kts 89°
2026-02-17 09:17 46.56347 6.67326 16995 ft 382 kts 88°
2026-02-17 09:17 46.56208 6.71186 17397 ft 384 kts 86°
2026-02-17 09:18 46.56093 6.75073 17801 ft 386 kts 86°
2026-02-17 09:18 46.56002 6.78978 18212 ft 388 kts 85°
2026-02-17 09:18 46.55941 6.82911 18530 ft 389 kts 81°
2026-02-17 09:19 46.57518 6.90119 19163 ft 373 kts 56°
2026-02-17 09:19 46.58745 6.93406 19489 ft 368 kts 48°
2026-02-17 09:19 46.60192 6.96445 19839 ft 364 kts 43°
2026-02-17 09:19 46.61749 6.99347 20188 ft 364 kts 41°
2026-02-17 09:20 46.63355 7.02195 20524 ft 364 kts 40°
2026-02-17 09:20 46.64955 7.04996 20805 ft 366 kts 39°
2026-02-17 09:20 46.66612 7.07881 21130 ft 367 kts 39°
2026-02-17 09:20 46.68223 7.10721 21447 ft 369 kts 40°
2026-02-17 09:21 46.69871 7.13671 21765 ft 371 kts 40°
2026-02-17 09:21 46.71476 7.16561 22076 ft 373 kts 40°
2026-02-17 09:21 46.73107 7.19519 22389 ft 375 kts 40°
2026-02-17 09:21 46.74759 7.22538 22709 ft 377 kts 40°
2026-02-17 09:22 46.76376 7.25501 23002 ft 379 kts 40°
2026-02-17 09:22 46.78030 7.28500 23293 ft 380 kts 39°
2026-02-17 09:22 46.79695 7.31502 23573 ft 382 kts 39°
2026-02-17 09:23 46.83024 7.37562 24066 ft 383 kts 39°
2026-02-17 09:23 46.84659 7.40665 24305 ft 390 kts 43°
2026-02-17 09:23 46.86005 7.43837 24502 ft 399 kts 48°
2026-02-17 09:23 46.87318 7.47462 24691 ft 405 kts 51°
2026-02-17 09:24 46.88561 7.51166 24973 ft 406 kts 51°
2026-02-17 09:24 46.89774 7.54901 25231 ft 407 kts 51°
2026-02-17 09:24 46.90985 7.58631 25507 ft 406 kts 51°
2026-02-17 09:24 46.92209 7.62342 25791 ft 405 kts 50°
2026-02-17 09:25 46.93447 7.66039 26070 ft 404 kts 49°
2026-02-17 09:25 46.94696 7.69718 26304 ft 403 kts 49°
2026-02-17 09:25 46.95938 7.73386 26554 ft 402 kts 48°
2026-02-17 09:25 46.97185 7.77051 26821 ft 401 kts 47°
2026-02-17 09:26 46.98434 7.80701 27103 ft 401 kts 47°
2026-02-17 09:26 46.99671 7.84355 27323 ft 401 kts 47°
2026-02-17 09:26 47.00904 7.88025 27591 ft 400 kts 47°
2026-02-17 09:27 47.03364 7.95310 28098 ft 399 kts 46°
2026-02-17 09:27 47.04586 7.98960 28380 ft 399 kts 46°
2026-02-17 09:27 47.05808 8.02602 28624 ft 398 kts 46°
2026-02-17 09:27 47.06622 8.05007 28764 ft 397 kts 45°
2026-02-17 09:28 47.08262 8.09866 29094 ft 397 kts 45°
2026-02-17 09:28 47.09067 8.12268 29241 ft 397 kts 45°
2026-02-17 09:28 47.10281 8.15908 29467 ft 397 kts 45°
2026-02-17 09:28 47.11488 8.19548 29685 ft 397 kts 45°
2026-02-17 09:29 47.12689 8.23189 29878 ft 395 kts 45°
2026-02-17 09:29 47.13886 8.26782 29924 ft 390 kts 45°
2026-02-17 09:29 47.16308 8.33974 29947 ft 398 kts 45°
2026-02-17 09:30 47.20019 8.45106 29955 ft 411 kts 46°
2026-02-17 09:31 47.22951 8.54052 29951 ft 421 kts 47°
2026-02-17 09:31 47.25516 8.61879 29956 ft 428 kts 48°
2026-02-17 09:32 47.28100 8.69803 29943 ft 429 kts 49°
2026-02-17 09:32 47.30684 8.77740 29954 ft 431 kts 49°
2026-02-17 09:33 47.33258 8.85727 29953 ft 432 kts 50°
2026-02-17 09:33 47.35854 8.93707 29959 ft 432 kts 50°
2026-02-17 09:34 47.38456 9.01723 29938 ft 434 kts 50°
2026-02-17 09:35 47.42323 9.13761 29932 ft 435 kts 51°
2026-02-17 09:35 47.44892 9.21740 29918 ft 436 kts 51°
2026-02-17 09:36 47.47465 9.29859 29935 ft 436 kts 51°
2026-02-17 09:36 47.50047 9.37972 29920 ft 436 kts 52°
2026-02-17 09:37 47.52646 9.46073 29916 ft 436 kts 52°
2026-02-17 09:37 47.55212 9.54223 29913 ft 437 kts 53°
2026-02-17 09:38 47.57166 9.62913 29920 ft 458 kts 68°
2026-02-17 09:38 47.58234 9.72256 29921 ft 468 kts 75°
2026-02-17 09:39 47.58164 9.82035 29929 ft 479 kts 85°
2026-02-17 09:39 47.57908 9.86962 29920 ft 480 kts 86°